User: anonymous   Login
Location: Cluny
(50.9333°N, 112.8167°W)
Time: 17:35:40
(UTC-06:00)
Language:

Cosmos 1743 Rocket - Orbit

View from above orbital plane
View from above orbital plane
View from above satellite
View from above satellite

Ground track
Ground track

The orbit data is extracted from the following two-line orbital elements,

1 16720U 86034B   15107.85462083  .00000672  00000-0  79484-4 0  9998
2 16720 082.5528 259.1410 0020161 187.6216 325.3786 14.83039347561964
Epoch (UTC): 17 April 2015 20:30:39
Eccentricity: 0.0020161
inclination: 82.5528°
perigee height: 605 km
apogee height: 634 km
right ascension of ascending node: 259.1410°
argument of perigee: 187.6216°
revolutions per day: 14.83039347
mean anomaly at epoch: 325.3786°
orbit number at epoch: 56196

The dashed part of the orbit path shows where the satellite is in the earth's shadow,  

DLR